DW2257 Swampscott MA US current weather conditions

sailwx.info

Wind from 119 at 0 knots gusting 5

Air temperature 21.1° C
Dewpoint 17.9° C

Last reported at 2020-Aug-14 11:01 UTC.
Time now 2020-Aug-14 11:23 UTC

Location: N 42°28' W 070°55'.
View on Google Maps.

See reports from other nearby stations

  
Tides and Currents Weather Stations Pressure Air Temp Water Temp Dewpoint Dewpoint Depression Visibility Wind Speed Wind Dir Waves Ship Positions
date/time (UTC)wind fromknots sea level pressurealtimeterstation pressurevisibilityair tempwater tempwave heightnotes
2020-Aug-14 11:01 119 0 gusting 5 21.1
2020-Aug-14 10:46 119 20.6
2020-Aug-14 10:32 119 20.6
2020-Aug-14 10:16 119 0 gusting 2 20.6
2020-Aug-14 10:02 119 20.6
2020-Aug-14 09:47 119 20.6
2020-Aug-14 09:32 119 20.6
2020-Aug-14 09:17 119 20.6
2020-Aug-14 09:02 119 20.6
2020-Aug-14 08:47 119 0 gusting 3 20.6
2020-Aug-14 08:31 119 0 gusting 4 20.6
2020-Aug-14 08:16 119 0 gusting 4 21.1
2020-Aug-14 08:01 119 21.1
2020-Aug-14 07:46 119 21.1
2020-Aug-14 07:31 119 21.1
2020-Aug-14 07:17 119 21.1
2020-Aug-14 07:01 119 21.1
2020-Aug-14 06:47 119 21.1
2020-Aug-14 06:31 119 21.1
2020-Aug-14 06:16 119 21.1
2020-Aug-14 06:02 119 21.1
2020-Aug-14 05:46 119 21.1
2020-Aug-14 05:31 119 21.1
2020-Aug-14 05:16 119 21.1
2020-Aug-14 05:01 119 21.1
2020-Aug-14 04:46 119 21.1
2020-Aug-14 04:31 119 21.1
2020-Aug-14 04:16 119 21.7
2020-Aug-14 04:01 119 21.7
2020-Aug-14 03:46 119 21.7
2020-Aug-14 03:31 119 21.7
2020-Aug-14 03:16 119 22.2
2020-Aug-14 03:01 119 22.2
2020-Aug-14 02:46 119 22.2
2020-Aug-14 02:31 119 22.2
2020-Aug-14 02:16 119 22.8
2020-Aug-14 02:01 119 22.8
2020-Aug-14 01:46 119 22.8
2020-Aug-14 01:31 119 23.3
2020-Aug-14 01:16 119 23.9
2020-Aug-14 01:01 120 23.9
2020-Aug-14 00:46 119 23.9
2020-Aug-14 00:16 119 23.9
2020-Aug-14 00:01 119 23.9
2020-Aug-13 23:01 119 23.3
2020-Aug-13 22:46 119 23.3
2020-Aug-13 22:31 119 23.9
2020-Aug-13 22:16 119 23.9
2020-Aug-13 22:01 119 23.9
2020-Aug-13 21:46 119 24.4
2020-Aug-13 21:31 119 0 gusting 3 25.0
2020-Aug-13 21:16 119 0 gusting 2 25.0
2020-Aug-13 21:01 119 26.1
2020-Aug-13 20:46 119 1 gusting 3 26.1
2020-Aug-13 20:31 119 1 gusting 4 25.6
2020-Aug-13 20:16 119 0 gusting 4 25.6
2020-Aug-13 20:01 119 1 gusting 4 25.6
2020-Aug-13 19:46 119 0 gusting 4 26.7
2020-Aug-13 19:31 118 1 gusting 3 28.3
2020-Aug-13 19:16 118 4 gusting 9 28.3
2020-Aug-13 19:01 100 1 gusting 7 28.3
2020-Aug-13 18:46 088 0 gusting 3 28.9
2020-Aug-13 18:31 089 0 gusting 5 28.9
2020-Aug-13 18:16 088 29.4
2020-Aug-13 18:01 089 1 gusting 5 30.0
2020-Aug-13 17:46 088 0 gusting 2 30.0
2020-Aug-13 17:31 089 0 gusting 3 29.4
2020-Aug-13 17:16 088 0 gusting 3 30.6
2020-Aug-13 17:01 073 0 gusting 6 30.6
2020-Aug-13 16:46 073 1 gusting 6 30.6
2020-Aug-13 16:31 059 0 gusting 6 31.1
2020-Aug-13 16:16 022 31.1
2020-Aug-13 16:01 022 31.7
2020-Aug-13 15:46 348 0 gusting 5 31.1
2020-Aug-13 15:31 346 30.6
2020-Aug-13 15:17 341 0 gusting 5 30.6
2020-Aug-13 15:02 336 1 gusting 5 30.6
2020-Aug-13 14:46 334 0 gusting 4 29.4
2020-Aug-13 14:31 360 0 gusting 4 29.4
2020-Aug-13 14:16 360 28.9
2020-Aug-13 14:01 009 0 gusting 7 28.9
2020-Aug-13 13:47 360 1 gusting 7 28.3
2020-Aug-13 13:31 333 27.8
2020-Aug-13 13:16 327 26.7
2020-Aug-13 13:01 360 26.1
2020-Aug-13 12:46 360 0 gusting 6 25.6
2020-Aug-13 12:31 346 1 gusting 9 25.0
2020-Aug-13 12:16 342 2 gusting 7 24.4
2020-Aug-13 12:01 342 1 gusting 6 23.9
2020-Aug-13 11:46 343 0 gusting 8 23.9
2020-Aug-13 11:31 344 0 gusting 4 23.3
2020-Aug-13 11:16 345 0 gusting 4 22.8
2020-Aug-13 11:01 345 0 gusting 4 22.8
2020-Aug-13 10:46 345 1 gusting 6 22.2
2020-Aug-13 10:31 346 22.2
2020-Aug-13 10:16 346 0 gusting 4 22.2
2020-Aug-13 10:01 347 0 gusting 3 22.8
2020-Aug-13 09:46 350 0 gusting 4 22.8
2020-Aug-13 09:31 355 0 gusting 3 22.8
2020-Aug-13 09:16 350 22.8
2020-Aug-13 09:01 351 22.8
2020-Aug-13 08:47 350 22.8
2020-Aug-13 08:32 355 22.8
2020-Aug-13 08:16 350 23.3
2020-Aug-13 08:01 350 0 gusting 2 23.3
2020-Aug-13 07:46 355 0 gusting 5 23.9
2020-Aug-13 07:31 351 23.9
2020-Aug-13 07:16 350 23.9
2020-Aug-13 07:02 351 24.4
2020-Aug-13 06:46 350 0 gusting 4 24.4
2020-Aug-13 06:31 355 25.0
2020-Aug-13 06:17 059 0 gusting 6 25.0
2020-Aug-13 06:01 075 25.0
2020-Aug-13 05:46 076 0 gusting 8 25.0
2020-Aug-13 05:32 138 1 gusting 6 25.6
2020-Aug-13 05:17 137 0 gusting 5 25.6
2020-Aug-13 05:01 137 25.6
2020-Aug-13 04:47 138 0 gusting 4 25.6
2020-Aug-13 04:31 138 0 gusting 4 25.0
2020-Aug-13 04:16 138 24.4
2020-Aug-13 04:02 138 24.4
2020-Aug-13 03:46 138 24.4
2020-Aug-13 03:31 138 24.4
2020-Aug-13 03:16 138 23.9
2020-Aug-13 03:01 138 24.4
2020-Aug-13 02:46 138 24.4
2020-Aug-13 02:31 138 25.0
2020-Aug-13 02:16 137 25.0
2020-Aug-13 02:01 138 25.0
2020-Aug-13 01:46 138 25.6
2020-Aug-13 01:31 138 25.6
2020-Aug-13 01:17 137 25.6
2020-Aug-13 01:01 138 25.6
2020-Aug-13 00:46 138 25.6
2020-Aug-13 00:31 138 25.6
2020-Aug-13 00:16 138 25.6
2020-Aug-13 00:01 138 25.6
2020-Aug-12 23:46 138 25.6
2020-Aug-12 23:31 138 26.1
2020-Aug-12 23:16 138 26.7
2020-Aug-12 23:01 138 26.7
2020-Aug-12 22:46 138 27.2
2020-Aug-12 22:31 138 27.2
2020-Aug-12 22:16 138 1 gusting 3 27.2
2020-Aug-12 22:01 138 26.7
2020-Aug-12 21:46 138 0 gusting 4 27.2
2020-Aug-12 21:31 138 0 gusting 8 26.7
2020-Aug-12 21:16 140 1 gusting 6 27.8
2020-Aug-12 21:01 137 28.3
2020-Aug-12 20:46 137 1 gusting 6 28.3
2020-Aug-12 20:31 137 0 gusting 5 28.3
2020-Aug-12 20:16 137 3 gusting 6 28.3
2020-Aug-12 20:01 137 2 gusting 5 28.3
2020-Aug-12 19:46 137 2 gusting 4 27.8
2020-Aug-12 19:31 137 0 gusting 3 27.2
2020-Aug-12 19:16 137 1 gusting 5 26.7
2020-Aug-12 19:01 132 1 gusting 7 27.8
2020-Aug-12 18:46 132 28.3
2020-Aug-12 18:31 138 3 gusting 6 30.6
2020-Aug-12 18:16 137 1 gusting 6 30.6
2020-Aug-12 18:01 138 2 gusting 7 30.0
2020-Aug-12 17:46 139 4 gusting 8 31.1
2020-Aug-12 17:32 146 0 gusting 6 30.6
2020-Aug-12 17:17 145 2 gusting 6 30.0
2020-Aug-12 17:01 148 3 gusting 7 29.4
2020-Aug-12 16:46 151 4 gusting 10 28.3
2020-Aug-12 16:31 156 4 gusting 9 29.4
2020-Aug-12 16:16 194 2 gusting 6 30.0
2020-Aug-12 16:01 244 3 gusting 6 30.0
2020-Aug-12 15:46 284 30.6
2020-Aug-12 15:31 286 31.1
2020-Aug-12 15:16 286 0 gusting 6 30.6
2020-Aug-12 15:01 286 3 gusting 7 30.6
2020-Aug-12 14:46 286 0 gusting 7 30.0
2020-Aug-12 14:31 284 1 gusting 5 29.4
2020-Aug-12 14:16 297 28.9
2020-Aug-12 14:01 325 1 gusting 11 28.3
2020-Aug-12 13:46 232 3 gusting 10 28.3
2020-Aug-12 13:31 252 0 gusting 7 27.8
2020-Aug-12 13:16 249 1 gusting 6 27.8
2020-Aug-12 13:01 245 1 gusting 5 27.2
2020-Aug-12 12:46 267 2 gusting 10 26.7
2020-Aug-12 12:32 238 0 gusting 10 26.7
2020-Aug-12 12:17 238 3 gusting 7 26.1
2020-Aug-12 12:01 223 1 gusting 4 25.6
2020-Aug-12 11:46 222 25.6
2020-Aug-12 11:32 222 1 gusting 6 25.6
2020-Aug-12 11:17 222 0 gusting 4 25.0
2020-Aug-12 11:01 221 4 gusting 6 25.0